Location: Saint-Usage
(47.1052°N, 5.2587°E)
Time: 21:08:06
(UTC+02:00)

X-37B - Pass Details

Date: 30 September 2021
Orbit: 385 x 389 km, 45.0° (Epoch: 13 October)

Event Time Altitude Azimuth Distance (km) Brightness Sun altitude
Exits shadow 05:39:22 48° 138° (SE) 517 1.3 -20.5°
Drops below altitude 10° 05:41:56 10° 104° (ESE) 1,413 4.2 -20.0°
Sets 05:44:01 0° 101° (E) 2,268 5.5 -19.7°
